,,PA_Meas_PMT16A,,PR_Meas_QMR101_102,,RH_Meas_QMH101,,SR_Meas_QMS101,,TA_Meas_QMH101,,GenWind,,GenWind,
time,status,PA,status,PR,status,RH,status,SR,status,TA,status,DirAvg,status,SpdAvg,
2010-01-29, 00:00:04,VALID,919.955,VALID,0,VALID,90.0402,VALID,0.107441,VALID,20.2832,VALID,126,VALID,1.63711,
2010-01-29, 00:01:04,VALID,919.971,VALID,0,VALID,88.9424,VALID,0.107441,VALID,20.3417,VALID,118,VALID,1.52422,
2010-01-29, 00:02:04,VALID,919.93,VALID,0,VALID,89.3236,VALID,0.107441,VALID,20.4603,VALID,109,VALID,1.31328,
2010-01-29, 00:03:04,VALID,919.926,VALID,0,VALID,89.1482,VALID,0.107441,VALID,20.4603,VALID,109,VALID,0.950391,
2010-01-29, 00:04:04,VALID,919.897,VALID,0,VALID,88.3783,VALID,0.107441,VALID,20.5188,VALID,117,VALID,1.38711,
2010-01-29, 00:05:04,VALID,919.907,VALID,0,VALID,88.3935,VALID,0,VALID,20.5383,VALID,97,VALID,1.46133,
2010-01-29, 00:06:04,VALID,919.878,VALID,0,VALID,88.4088,VALID,0,VALID,20.5367,VALID,132,VALID,1.13477,
2010-01-29, 00:07:04,VALID,919.863,VALID,0,VALID,88.2105,VALID,0.107441,VALID,20.5773,VALID,146,VALID,1.30469,
2010-01-29, 00:08:04,VALID,919.841,VALID,0,VALID,88.302,VALID,0.107441,VALID,20.5578,VALID,146,VALID,0.952344,
2010-01-29, 00:09:04,VALID,919.824,VALID,0,VALID,88.1343,VALID,0.107441,VALID,20.5367,VALID,140,VALID,1.225,
2010-01-29, 00:10:04,VALID,919.801,VALID,0,VALID,87.9209,VALID,0.107441,VALID,20.5562,VALID,131,VALID,1.49297,
2010-01-29, 00:11:04,VALID,919.774,VALID,0,VALID,87.9437,VALID,0.107441,VALID,20.5952,VALID,138,VALID,1.39492,
2010-01-29, 00:12:04,VALID,919.736,VALID,0,VALID,88.0352,VALID,0.107441,VALID,20.5757,VALID,141,VALID,0.948047,
2010-01-29, 00:13:04,VALID,919.702,VALID,0,VALID,87.9818,VALID,0.107441,VALID,20.5968,VALID,141,VALID,1.10195,
2010-01-29, 00:14:04,VALID,919.691,VALID,0,VALID,87.9513,VALID,0.107441,VALID,20.5968,VALID,124,VALID,1.91055,
2010-01-29, 00:15:04,VALID,919.67,VALID,0,VALID,87.7989,VALID,0.107441,VALID,20.5968,VALID,132,VALID,1.31523,
2010-01-29, 00:16:04,VALID,919.673,VALID,0,VALID,87.7455,VALID,0.107441,VALID,20.5757,VALID,136,VALID,1.43633,
2010-01-29, 00:17:04,VALID,919.674,VALID,0,VALID,87.7913,VALID,0,VALID,20.5968,VALID,118,VALID,0.887891,
2010-01-29, 00:18:04,VALID,919.68,VALID,0,VALID,87.6388,VALID,0,VALID,20.6358,VALID,100,VALID,1.36836,
2010-01-29, 00:19:04,VALID,919.653,VALID,0,VALID,87.5168,VALID,0.107441,VALID,20.6147,VALID,111,VALID,1.85664,
2010-01-29, 00:20:04,VALID,919.624,VALID,0,VALID,87.433,VALID,0.107441,VALID,20.6553,VALID,125,VALID,1.30313,
2010-01-29, 00:21:04,VALID,919.636,VALID,0,VALID,87.3643,VALID,0.107441,VALID,20.6537,VALID,127,VALID,1.70664,
2010-01-29, 00:22:04,VALID,919.639,VALID,0,VALID,86.9451,VALID,0.107441,VALID,20.6733,VALID,134,VALID,2.29883,
2010-01-29, 00:23:04,VALID,919.617,VALID,0,VALID,86.9832,VALID,0.107441,VALID,20.7123,VALID,114,VALID,1.78477,
2010-01-29, 00:24:04,VALID,919.642,VALID,0,VALID,86.8841,VALID,0.107441,VALID,20.6928,VALID,125,VALID,2.16992,
2010-01-29, 00:25:04,VALID,919.599,VALID,0,VALID,87.0213,VALID,0,VALID,20.7138,VALID,110,VALID,1.45273,
2010-01-29, 00:26:04,VALID,919.577,VALID,0,VALID,86.9603,VALID,0.107441,VALID,20.7138,VALID,116,VALID,1.64961,
2010-01-29, 00:27:04,VALID,919.559,VALID,0,VALID,86.7773,VALID,0.107441,VALID,20.7318,VALID,126,VALID,1.30195,
2010-01-29, 00:28:04,VALID,919.532,VALID,0,VALID,86.4648,VALID,0.107441,VALID,20.7918,VALID,132,VALID,1.96758,
2010-01-29, 00:29:04,VALID,919.552,VALID,0,VALID,86.7011,VALID,0.107441,VALID,20.7918,VALID,120,VALID,1.35742,
2010-01-29, 00:30:04,VALID,919.538,VALID,0,VALID,86.3352,VALID,0.107441,VALID,20.7918,VALID,135,VALID,1.28008,
2010-01-29, 00:31:04,VALID,919.538,VALID,0,VALID,86.076,VALID,0.107441,VALID,20.8504,VALID,120,VALID,1.53477,
2010-01-29, 00:32:04,VALID,919.518,VALID,0,VALID,86.015,VALID,0.107441,VALID,20.8309,VALID,131,VALID,2.21992,
2010-01-29, 00:33:04,VALID,919.542,VALID,0,VALID,86.0455,VALID,0.107441,VALID,20.8488,VALID,136,VALID,1.77383,
2010-01-29, 00:34:04,VALID,919.537,VALID,0,VALID,85.9083,VALID,0.107441,VALID,20.8699,VALID,126,VALID,1.75664,
2010-01-29, 00:35:04,VALID,919.539,VALID,0,VALID,85.7253,VALID,0.107441,VALID,20.8683,VALID,149,VALID,1.61797,
2010-01-29, 00:36:04,VALID,919.515,VALID,0,VALID,85.9007,VALID,0.107441,VALID,20.8894,VALID,117,VALID,1.44727,
2010-01-29, 00:37:04,VALID,919.533,VALID,0,VALID,85.7329,VALID,0,VALID,20.8894,VALID,144,VALID,1.39648,
2010-01-29, 00:38:04,VALID,919.484,VALID,0,VALID,85.9769,VALID,0.107441,VALID,20.8894,VALID,113,VALID,1.44727,
2010-01-29, 00:39:04,VALID,919.477,VALID,0,VALID,86.076,VALID,0.107441,VALID,20.8699,VALID,126,VALID,1.73672,
2010-01-29, 00:40:04,VALID,919.479,VALID,0,VALID,86.1446,VALID,0.107441,VALID,20.8293,VALID,121,VALID,1.0293,
2010-01-29, 00:41:04,VALID,919.456,VALID,0,VALID,85.9311,VALID,0,VALID,20.8098,VALID,137,VALID,1.14336,
2010-01-29, 00:42:04,VALID,919.435,VALID,0,VALID,86.2437,VALID,0,VALID,20.8504,VALID,112,VALID,1.21758,
2010-01-29, 00:43:04,VALID,919.425,VALID,0,VALID,86.3199,VALID,0.107441,VALID,20.8098,VALID,115,VALID,1.32539,
2010-01-29, 00:44:04,VALID,919.404,VALID,0,VALID,86.3885,VALID,0.107441,VALID,20.8113,VALID,129,VALID,0.855469,
2010-01-29, 00:45:04,VALID,919.402,VALID,0,VALID,86.3428,VALID,0.107441,VALID,20.7918,VALID,101,VALID,1.48242,
2010-01-29, 00:46:04,VALID,919.414,VALID,0,VALID,86.076,VALID,0,VALID,20.8113,VALID,124,VALID,1.37617,
2010-01-29, 00:47:04,VALID,919.394,VALID,0,VALID,86.1827,VALID,0.107441,VALID,20.8113,VALID,108,VALID,0.960547,
2010-01-29, 00:48:04,VALID,919.397,VALID,0,VALID,86.4267,VALID,0.107441,VALID,20.7918,VALID,111,VALID,1.1043,
2010-01-29, 00:49:04,VALID,919.374,VALID,0,VALID,86.4267,VALID,0.107441,VALID,20.7918,VALID,113,VALID,0.845312,
2010-01-29, 00:50:04,VALID,919.368,VALID,0,VALID,86.4877,VALID,0.107441,VALID,20.7723,VALID,114,VALID,1.39219,
2010-01-29, 00:51:04,VALID,919.341,VALID,0,VALID,86.5258,VALID,0,VALID,20.7723,VALID,112,VALID,1.74844,
2010-01-29, 00:52:04,VALID,919.336,VALID,0,VALID,86.8993,VALID,0,VALID,20.7138,VALID,123,VALID,1.45352,
2010-01-29, 00:53:04,VALID,919.352,VALID,0,VALID,87.0061,VALID,0,VALID,20.6943,VALID,133,VALID,1.42031,
2010-01-29, 00:54:04,VALID,919.32,VALID,0,VALID,86.9908,VALID,0,VALID,20.7138,VALID,103,VALID,1.19453,
2010-01-29, 00:55:04,VALID,919.34,VALID,0,VALID,87.0365,VALID,0.107441,VALID,20.6943,VALID,125,VALID,1.8668,
2010-01-29, 00:56:04,VALID,919.313,VALID,0,VALID,87.128,VALID,0.107441,VALID,20.6537,VALID,126,VALID,1.77461,
2010-01-29, 00:57:04,VALID,919.296,VALID,0,VALID,87.2043,VALID,0.107441,VALID,20.6342,VALID,127,VALID,1.19922,
2010-01-29, 00:58:04,VALID,919.293,VALID,0,VALID,87.1738,VALID,0.107441,VALID,20.6147,VALID,141,VALID,1.39922,
2010-01-29, 00:59:04,VALID,919.298,VALID,0,VALID,87.1814,VALID,0,VALID,20.6358,VALID,141,VALID,1.1125,
2010-01-29, 01:00:04,VALID,919.263,VALID,0,VALID,87.3872,VALID,0,VALID,20.5952,VALID,141,VALID,0.823047,
2010-01-29, 01:01:04,VALID,919.287,VALID,0,VALID,87.3872,VALID,0.107441,VALID,20.6147,VALID,141,VALID,1.3418,
2010-01-29, 01:02:04,VALID,919.269,VALID,0,VALID,87.4634,VALID,0.107441,VALID,20.5952,VALID,126,VALID,1.60156,
2010-01-29, 01:03:04,VALID,919.23,VALID,0,VALID,87.6998,VALID,0.107441,VALID,20.5757,VALID,108,VALID,1.47266,
2010-01-29, 01:04:04,VALID,919.224,VALID,0,VALID,87.8446,VALID,0.107441,VALID,20.5562,VALID,106,VALID,1.10312,
2010-01-29, 01:05:04,VALID,919.206,VALID,0,VALID,87.8294,VALID,0,VALID,20.5578,VALID,106,VALID,1.45352,
2010-01-29, 01:06:04,VALID,919.164,VALID,0,VALID,87.7684,VALID,0,VALID,20.5578,VALID,106,VALID,1.25547,
2010-01-29, 01:07:04,VALID,919.186,VALID,0,VALID,87.6235,VALID,0.107441,VALID,20.5367,VALID,106,VALID,1.7043,
2010-01-29, 01:08:04,VALID,919.164,VALID,0,VALID,87.6845,VALID,0.107441,VALID,20.5562,VALID,120,VALID,1.37344,
2010-01-29, 01:09:04,VALID,919.158,VALID,0,VALID,87.7226,VALID,0,VALID,20.5562,VALID,126,VALID,1.18867,
2010-01-29, 01:10:04,VALID,919.122,VALID,0,VALID,87.6617,VALID,0.107441,VALID,20.5757,VALID,129,VALID,1.42344,
2010-01-29, 01:11:04,VALID,919.116,VALID,0,VALID,87.7455,VALID,0,VALID,20.5562,VALID,136,VALID,1.07852,
2010-01-29, 01:12:04,VALID,919.065,VALID,0,VALID,87.6083,VALID,0.107441,VALID,20.5367,VALID,128,VALID,1.27852,
2010-01-29, 01:13:04,VALID,919.08,VALID,0,VALID,87.5473,VALID,0.107441,VALID,20.5367,VALID,122,VALID,1.49023,
2010-01-29, 01:14:04,VALID,919.076,VALID,0,VALID,87.654,VALID,0,VALID,20.5367,VALID,134,VALID,1.58711,
2010-01-29, 01:15:04,VALID,919.073,VALID,0,VALID,87.8446,VALID,0.107441,VALID,20.5367,VALID,129,VALID,1.35156,
2010-01-29, 01:16:04,VALID,919.087,VALID,0,VALID,88.0352,VALID,0.107441,VALID,20.5383,VALID,129,VALID,1.33633,
2010-01-29, 01:17:04,VALID,919.069,VALID,0,VALID,88.2105,VALID,0.107441,VALID,20.4782,VALID,134,VALID,1.65039,
2010-01-29, 01:18:04,VALID,919.051,VALID,0,VALID,88.363,VALID,0.107441,VALID,20.4392,VALID,133,VALID,1.10859,
2010-01-29, 01:19:04,VALID,919.066,VALID,0,VALID,88.5917,VALID,0,VALID,20.4197,VALID,148,VALID,1.29023,
2010-01-29, 01:20:04,VALID,919.046,VALID,0,VALID,88.7213,VALID,0,VALID,20.4213,VALID,148,VALID,1.5293,
2010-01-29, 01:21:04,VALID,919.052,VALID,0,VALID,88.6375,VALID,0,VALID,20.4018,VALID,148,VALID,1.37656,
2010-01-29, 01:22:04,VALID,919.072,VALID,0,VALID,88.8357,VALID,0,VALID,20.4018,VALID,138,VALID,1.72852,
2010-01-29, 01:23:04,VALID,919.037,VALID,0,VALID,88.7061,VALID,0,VALID,20.3823,VALID,144,VALID,1.34219,
2010-01-29, 01:24:04,VALID,919.069,VALID,0,VALID,88.7747,VALID,0,VALID,20.3823,VALID,144,VALID,1.36797,
2010-01-29, 01:25:04,VALID,919.067,VALID,0,VALID,88.7594,VALID,0,VALID,20.4213,VALID,144,VALID,1.38164,
2010-01-29, 01:26:04,VALID,919.031,VALID,0,VALID,88.5688,VALID,0,VALID,20.4213,VALID,111,VALID,1.6832,
2010-01-29, 01:27:04,VALID,919.043,VALID,0,VALID,88.7823,VALID,0,VALID,20.4018,VALID,104,VALID,1.30781,
2010-01-29, 01:28:04,VALID,919.028,VALID,0,VALID,88.8052,VALID,0,VALID,20.4018,VALID,104,VALID,1.28672,
2010-01-29, 01:29:04,VALID,918.997,VALID,0,VALID,88.6908,VALID,0,VALID,20.4228,VALID,104,VALID,1.36055,
2010-01-29, 01:30:04,VALID,919.011,VALID,0,VALID,88.7213,VALID,0,VALID,20.4018,VALID,104,VALID,1.36406,
2010-01-29, 01:31:04,VALID,918.997,VALID,0,VALID,88.3783,VALID,0,VALID,20.4408,VALID,104,VALID,1.23477,
2010-01-29, 01:32:04,VALID,918.964,VALID,0,VALID,88.4316,VALID,0,VALID,20.4408,VALID,104,VALID,1.37891,
2010-01-29, 01:33:04,VALID,918.951,VALID,0,VALID,88.3935,VALID,0,VALID,20.4408,VALID,104,VALID,1.18594,
2010-01-29, 01:34:04,VALID,918.947,VALID,0,VALID,88.2487,VALID,0,VALID,20.4603,VALID,100,VALID,1.17422,
2010-01-29, 01:35:04,VALID,918.947,VALID,0,VALID,88.1648,VALID,0,VALID,20.4813,VALID,100,VALID,1.27148,
2010-01-29, 01:36:04,VALID,918.945,VALID,0,VALID,88.0733,VALID,0.107441,VALID,20.4782,VALID,100,VALID,1.0625,
2010-01-29, 01:37:04,VALID,918.917,VALID,0,VALID,88.1724,VALID,0.107441,VALID,20.5188,VALID,100,VALID,0.923828,
2010-01-29, 01:38:04,VALID,918.932,VALID,0,VALID,87.9132,VALID,0.107441,VALID,20.4782,VALID,100,VALID,1.26133,
2010-01-29, 01:39:04,VALID,918.931,VALID,0,VALID,87.9209,VALID,0.107441,VALID,20.4977,VALID,100,VALID,1.24336,
2010-01-29, 01:40:04,VALID,918.953,VALID,0,VALID,88.0428,VALID,0.107441,VALID,20.4977,VALID,100,VALID,0.819141,
2010-01-29, 01:41:04,VALID,918.939,VALID,0,VALID,88.1877,VALID,0.107441,VALID,20.4782,VALID,100,VALID,1.20781,
2010-01-29, 01:42:04,VALID,918.924,VALID,0,VALID,88.2258,VALID,0.107441,VALID,20.4392,VALID,100,VALID,1.33594,
2010-01-29, 01:43:04,VALID,918.898,VALID,0,VALID,88.0657,VALID,0.107441,VALID,20.4392,VALID,100,VALID,0.926172,
2010-01-29, 01:44:04,VALID,918.834,VALID,0,VALID,88.1572,VALID,0.107441,VALID,20.4798,VALID,132,VALID,1.50234,
2010-01-29, 01:45:04,VALID,918.829,VALID,0,VALID,88.1953,VALID,0.107441,VALID,20.4587,VALID,130,VALID,1.19141,
2010-01-29, 01:46:04,VALID,918.823,VALID,0,VALID,87.9437,VALID,0.107441,VALID,20.4798,VALID,159,VALID,1.16797,
2010-01-29, 01:47:04,VALID,918.816,VALID,0,VALID,88.0123,VALID,0.107441,VALID,20.4587,VALID,116,VALID,1.18203,
2010-01-29, 01:48:04,VALID,918.793,VALID,0,VALID,88.0047,VALID,0.107441,VALID,20.4798,VALID,113,VALID,1.3707,
2010-01-29, 01:49:04,VALID,918.802,VALID,0,VALID,88.2182,VALID,0.107441,VALID,20.4587,VALID,113,VALID,0.776563,
2010-01-29, 01:50:04,VALID,918.755,VALID,0,VALID,88.3097,VALID,0.107441,VALID,20.4392,VALID,113,VALID,1.27969,
2010-01-29, 01:51:04,VALID,918.738,VALID,0,VALID,88.363,VALID,0,VALID,20.4408,VALID,149,VALID,1.05781,
2010-01-29, 01:52:04,VALID,918.758,VALID,0,VALID,88.6527,VALID,0,VALID,20.4018,VALID,136,VALID,1.25781,
2010-01-29, 01:53:04,VALID,918.75,VALID,0,VALID,88.8357,VALID,0.107441,VALID,20.3823,VALID,136,VALID,0.551562,
2010-01-29, 01:54:04,VALID,918.708,VALID,0,VALID,89.1254,VALID,0,VALID,20.3433,VALID,134,VALID,1.07852,
2010-01-29, 01:55:04,VALID,918.706,VALID,0,VALID,89.0415,VALID,0,VALID,20.3043,VALID,133,VALID,1.26953,
2010-01-29, 01:56:04,VALID,918.698,VALID,0,VALID,88.8662,VALID,0,VALID,20.3238,VALID,129,VALID,1.31367,
2010-01-29, 01:57:04,VALID,918.698,VALID,0,VALID,88.8204,VALID,0,VALID,20.3433,VALID,127,VALID,1.22109,
2010-01-29, 01:58:04,VALID,918.66,VALID,0,VALID,88.7747,VALID,0,VALID,20.3643,VALID,127,VALID,1.25117,
2010-01-29, 01:59:04,VALID,918.644,VALID,0,VALID,88.7518,VALID,0,VALID,20.3643,VALID,118,VALID,1.22383,
2010-01-29, 02:00:04,VALID,918.617,VALID,0,VALID,88.7975,VALID,0,VALID,20.3643,VALID,118,VALID,1.16953,
2010-01-29, 02:01:04,VALID,918.587,VALID,0,VALID,88.8128,VALID,0,VALID,20.3448,VALID,118,VALID,0.789844,
2010-01-29, 02:02:04,VALID,918.613,VALID,0,VALID,88.889,VALID,0,VALID,20.3238,VALID,118,VALID,0.944531,
2010-01-29, 02:03:04,VALID,918.576,VALID,0,VALID,89.0339,VALID,0,VALID,20.3238,VALID,118,VALID,0.784375,
2010-01-29, 02:04:04,VALID,918.539,VALID,0,VALID,88.8662,VALID,0,VALID,20.3043,VALID,118,VALID,1.39336,
2010-01-29, 02:05:04,VALID,918.556,VALID,0,VALID,89.0872,VALID,0,VALID,20.3253,VALID,118,VALID,0.839063,
2010-01-29, 02:06:04,VALID,918.532,VALID,0,VALID,89.3464,VALID,0,VALID,20.2832,VALID,118,VALID,0.66875,
2010-01-29, 02:07:04,VALID,918.493,VALID,0,VALID,89.5142,VALID,0.107441,VALID,20.2637,VALID,118,VALID,0.741406,
2010-01-29, 02:08:04,VALID,918.5,VALID,0,VALID,89.5142,VALID,0.107441,VALID,20.2458,VALID,118,VALID,0.860156,
2010-01-29, 02:09:04,VALID,918.486,VALID,0,VALID,89.6895,VALID,0,VALID,20.2247,VALID,118,VALID,0.605859,
2010-01-29, 02:10:04,VALID,918.481,VALID,0,VALID,89.8877,VALID,0.107441,VALID,20.2052,VALID,118,VALID,0.906641,
2010-01-29, 02:11:04,VALID,918.465,VALID,0,VALID,89.9792,VALID,0,VALID,20.2068,VALID,118,VALID,0.613281,
2010-01-29, 02:12:04,VALID,918.434,VALID,0,VALID,90.1316,VALID,0,VALID,20.1873,VALID,118,VALID,0.523828,
2010-01-29, 02:13:04,VALID,918.441,VALID,0,VALID,90.3375,VALID,0.107441,VALID,20.1662,VALID,118,VALID,0.561719,
2010-01-29, 02:14:04,VALID,918.439,VALID,0,VALID,90.4747,VALID,0.107441,VALID,20.1467,VALID,118,VALID,0.588281,
2010-01-29, 02:15:04,VALID,918.432,VALID,0,VALID,90.5967,VALID,0.107441,VALID,20.1288,VALID,118,VALID,0.646875,
2010-01-29, 02:16:04,VALID,918.413,VALID,0,VALID,90.5357,VALID,0,VALID,20.1093,VALID,118,VALID,0.919531,
2010-01-29, 02:17:04,VALID,918.406,VALID,0,VALID,90.7796,VALID,0,VALID,20.0882,VALID,118,VALID,0.522656,
2010-01-29, 02:18:04,VALID,918.45,VALID,0,VALID,90.8787,VALID,0,VALID,20.0493,VALID,118,VALID,0.834375,
2010-01-29, 02:19:04,VALID,918.434,VALID,0,VALID,90.8711,VALID,0.107441,VALID,20.0703,VALID,118,VALID,1.1543,
2010-01-29, 02:20:04,VALID,918.442,VALID,0,VALID,90.7644,VALID,0,VALID,20.0898,VALID,118,VALID,0.802344,
2010-01-29, 02:21:04,VALID,918.422,VALID,0,VALID,90.7034,VALID,0.107441,VALID,20.0898,VALID,118,VALID,0.928516,
2010-01-29, 02:22:04,VALID,918.436,VALID,0,VALID,90.5891,VALID,0.107441,VALID,20.0688,VALID,118,VALID,1.41875,
2010-01-29, 02:23:04,VALID,918.405,VALID,0,VALID,90.2994,VALID,0.107441,VALID,20.1093,VALID,118,VALID,1.65859,
2010-01-29, 02:24:04,VALID,918.416,VALID,0,VALID,90.246,VALID,0.107441,VALID,20.1077,VALID,118,VALID,1.35391,
2010-01-29, 02:25:04,VALID,918.402,VALID,0,VALID,90.0783,VALID,0.107441,VALID,20.1873,VALID,118,VALID,1.25703,
2010-01-29, 02:26:04,VALID,918.399,VALID,0,VALID,89.9487,VALID,0,VALID,20.1678,VALID,118,VALID,1.15391,
2010-01-29, 02:27:04,VALID,918.396,VALID,0,VALID,90.1545,VALID,0,VALID,20.1873,VALID,109,VALID,1.1418,
2010-01-29, 02:28:04,VALID,918.417,VALID,0,VALID,90.0402,VALID,0,VALID,20.1662,VALID,109,VALID,0.822266,
2010-01-29, 02:29:04,VALID,918.391,VALID,0,VALID,90.0478,VALID,0,VALID,20.1873,VALID,109,VALID,0.74375,
2010-01-29, 02:30:04,VALID,918.373,VALID,0,VALID,89.8648,VALID,0,VALID,20.1678,VALID,109,VALID,1.00352,
2010-01-29, 02:31:04,VALID,918.386,VALID,0,VALID,89.7505,VALID,0,VALID,20.2068,VALID,109,VALID,0.885938,
2010-01-29, 02:32:04,VALID,918.325,VALID,0,VALID,89.6285,VALID,0.107441,VALID,20.2458,VALID,109,VALID,1.12422,
2010-01-29, 02:33:04,VALID,918.37,VALID,0,VALID,89.2778,VALID,0,VALID,20.2458,VALID,109,VALID,1.1207,
2010-01-29, 02:34:04,VALID,918.334,VALID,0,VALID,89.2168,VALID,0.107441,VALID,20.2848,VALID,123,VALID,0.905859,
2010-01-29, 02:35:04,VALID,918.335,VALID,0,VALID,89.1406,VALID,0.107441,VALID,20.2637,VALID,123,VALID,1.05625,
2010-01-29, 02:36:04,VALID,918.373,VALID,0,VALID,89.3007,VALID,0.107441,VALID,20.2848,VALID,123,VALID,1.25391,
2010-01-29, 02:37:04,VALID,918.316,VALID,0,VALID,89.415,VALID,0.107441,VALID,20.2442,VALID,123,VALID,0.988281,
2010-01-29, 02:38:04,VALID,918.297,VALID,0,VALID,89.5065,VALID,0.107441,VALID,20.2458,VALID,123,VALID,1.05117,
2010-01-29, 02:39:04,VALID,918.307,VALID,0,VALID,89.6742,VALID,0.107441,VALID,20.2247,VALID,119,VALID,0.683203,
2010-01-29, 02:40:04,VALID,918.272,VALID,0,VALID,89.7657,VALID,0,VALID,20.1857,VALID,119,VALID,1.04766,
2010-01-29, 02:41:04,VALID,918.243,VALID,0,VALID,89.9487,VALID,0.107441,VALID,20.2068,VALID,119,VALID,0.809766,
2010-01-29, 02:42:04,VALID,918.206,VALID,0,VALID,90.2384,VALID,0.107441,VALID,20.1873,VALID,119,VALID,0.678125,
2010-01-29, 02:43:04,VALID,918.211,VALID,0,VALID,90.5128,VALID,0,VALID,20.1483,VALID,119,VALID,0.792578,
2010-01-29, 02:44:04,VALID,918.192,VALID,0,VALID,90.833,VALID,0.107441,VALID,20.1093,VALID,119,VALID,0.750781,
2010-01-29, 02:45:04,VALID,918.185,VALID,0,VALID,90.9092,VALID,0.107441,VALID,20.0298,VALID,119,VALID,1.05664,
2010-01-29, 02:46:04,VALID,918.178,VALID,0,VALID,91.1303,VALID,0,VALID,20.0313,VALID,119,VALID,0.686719,
2010-01-29, 02:47:04,VALID,918.171,VALID,0,VALID,91.2218,VALID,0.107441,VALID,20.0118,VALID,119,VALID,1.11367,
2010-01-29, 02:48:04,VALID,918.151,VALID,0,VALID,91.481,VALID,0,VALID,19.9923,VALID,119,VALID,0.766406,
2010-01-29, 02:49:04,VALID,918.146,VALID,0,VALID,91.5344,VALID,0.107441,VALID,19.9533,VALID,119,VALID,1.1207,
2010-01-29, 02:50:04,VALID,918.125,VALID,0,VALID,91.6792,VALID,0.107441,VALID,19.9128,VALID,119,VALID,0.875781,
2010-01-29, 02:51:04,VALID,918.134,VALID,0,VALID,91.9003,VALID,0,VALID,19.9143,VALID,118,VALID,0.889844,
2010-01-29, 02:52:04,VALID,918.111,VALID,0,VALID,92.0146,VALID,0,VALID,19.8948,VALID,99,VALID,0.655859,
2010-01-29, 02:53:04,VALID,918.109,VALID,0,VALID,92.0527,VALID,0,VALID,19.8738,VALID,99,VALID,0.432813,
2010-01-29, 02:54:04,VALID,918.101,VALID,0,VALID,91.9536,VALID,0,VALID,19.8948,VALID,99,VALID,1.15195,
2010-01-29, 02:55:04,VALID,918.095,VALID,0,VALID,91.8393,VALID,0.107441,VALID,19.8738,VALID,99,VALID,1.04297,
2010-01-29, 02:56:04,VALID,918.088,VALID,0,VALID,91.7707,VALID,0.107441,VALID,19.9128,VALID,99,VALID,0.470703,
2010-01-29, 02:57:04,VALID,918.065,VALID,0,VALID,91.7173,VALID,0,VALID,19.9338,VALID,99,VALID,0.339844,
2010-01-29, 02:58:04,VALID,918.049,VALID,0,VALID,91.8012,VALID,0.107441,VALID,19.9128,VALID,99,VALID,0.225,
2010-01-29, 02:59:04,VALID,918.038,VALID,0,VALID,91.824,VALID,0,VALID,19.9338,VALID,99,VALID,0.392969,
2010-01-29, 03:00:04,VALID,918.052,VALID,0,VALID,91.9155,VALID,0,VALID,19.9143,VALID,99,VALID,0.536328,
2010-01-29, 03:01:04,VALID,918.018,VALID,0,VALID,91.8927,VALID,0.107441,VALID,19.8738,VALID,99,VALID,0.757422,
2010-01-29, 03:02:04,VALID,918.016,VALID,0,VALID,91.8469,VALID,0.107441,VALID,19.8738,VALID,99,VALID,0.966016,
2010-01-29, 03:03:04,VALID,917.999,VALID,0,VALID,91.7935,VALID,0.107441,VALID,19.8948,VALID,99,VALID,0.589844,
2010-01-29, 03:04:04,VALID,917.991,VALID,0,VALID,91.5801,VALID,0,VALID,19.8933,VALID,99,VALID,0.619141,
2010-01-29, 03:05:04,VALID,917.986,VALID,0,VALID,91.542,VALID,0.107441,VALID,19.9338,VALID,99,VALID,0.55,
2010-01-29, 03:06:04,VALID,918.002,VALID,0,VALID,91.42,VALID,0.107441,VALID,19.9728,VALID,99,VALID,0.427734,
2010-01-29, 03:07:04,VALID,917.981,VALID,0,VALID,91.2828,VALID,0,VALID,19.9728,VALID,99,VALID,0.603906,
2010-01-29, 03:08:04,VALID,917.977,VALID,0,VALID,91.1303,VALID,0.107441,VALID,19.9908,VALID,100,VALID,0.483984,
2010-01-29, 03:09:04,VALID,917.955,VALID,0,VALID,91.1227,VALID,0.107441,VALID,20.0313,VALID,100,VALID,0.463281,
2010-01-29, 03:10:04,VALID,917.979,VALID,0,VALID,90.9702,VALID,0,VALID,20.0313,VALID,100,VALID,0.445703,
2010-01-29, 03:11:04,VALID,917.948,VALID,0,VALID,90.772,VALID,0.107441,VALID,20.0508,VALID,100,VALID,0.883203,
2010-01-29, 03:12:04,VALID,917.912,VALID,0,VALID,90.8178,VALID,0.107441,VALID,20.0493,VALID,100,VALID,0.398828,
2010-01-29, 03:13:04,VALID,917.895,VALID,0,VALID,90.6043,VALID,0.107441,VALID,20.0493,VALID,151,VALID,1.13008,
2010-01-29, 03:14:04,VALID,917.882,VALID,0,VALID,90.5509,VALID,0,VALID,20.0703,VALID,151,VALID,0.746094,
2010-01-29, 03:15:04,VALID,917.868,VALID,0,VALID,90.5204,VALID,0.107441,VALID,20.0688,VALID,151,VALID,0.825781,
2010-01-29, 03:16:04,VALID,917.877,VALID,0,VALID,90.6805,VALID,0,VALID,20.0703,VALID,151,VALID,0.610156,
2010-01-29, 03:17:04,VALID,917.856,VALID,0,VALID,90.7415,VALID,0.107441,VALID,20.0298,VALID,151,VALID,0.807422,
2010-01-29, 03:18:04,VALID,917.831,VALID,0,VALID,90.772,VALID,0.107441,VALID,20.0313,VALID,151,VALID,0.882422,
2010-01-29, 03:19:04,VALID,917.837,VALID,0,VALID,90.6653,VALID,0.107441,VALID,20.0298,VALID,151,VALID,0.802734,
2010-01-29, 03:20:04,VALID,917.839,VALID,0,VALID,90.5357,VALID,0,VALID,20.0703,VALID,151,VALID,0.748828,
2010-01-29, 03:21:04,VALID,917.845,VALID,0,VALID,90.5281,VALID,0,VALID,20.0898,VALID,151,VALID,0.769922,
2010-01-29, 03:22:04,VALID,917.822,VALID,0,VALID,90.4518,VALID,0.107441,VALID,20.0688,VALID,151,VALID,0.560156,
2010-01-29, 03:23:04,VALID,917.813,VALID,0,VALID,90.3985,VALID,0.107441,VALID,20.0898,VALID,151,VALID,1.11016,
2010-01-29, 03:24:04,VALID,917.811,VALID,0,VALID,90.5738,VALID,0.107441,VALID,20.0688,VALID,151,VALID,0.823047,
2010-01-29, 03:25:04,VALID,917.816,VALID,0,VALID,90.6424,VALID,0.107441,VALID,20.0493,VALID,151,VALID,0.841016,
2010-01-29, 03:26:04,VALID,917.779,VALID,0,VALID,90.7339,VALID,0.107441,VALID,20.0313,VALID,151,VALID,0.663281,
2010-01-29, 03:27:04,VALID,917.79,VALID,0,VALID,90.8483,VALID,0.107441,VALID,20.0118,VALID,151,VALID,0.800781,
2010-01-29, 03:28:04,VALID,917.755,VALID,0,VALID,90.8864,VALID,0,VALID,20.0118,VALID,151,VALID,1.02969,
2010-01-29, 03:29:04,VALID,917.739,VALID,0,VALID,91.0617,VALID,0.107441,VALID,19.9713,VALID,150,VALID,0.839063,
2010-01-29, 03:30:04,VALID,917.696,VALID,0,VALID,91.2066,VALID,0.107441,VALID,19.9728,VALID,150,VALID,1.03477,
2010-01-29, 03:31:04,VALID,917.672,VALID,0,VALID,91.542,VALID,0.107441,VALID,19.9128,VALID,150,VALID,0.659375,
2010-01-29, 03:32:04,VALID,917.669,VALID,0,VALID,91.7173,VALID,0.107441,VALID,19.8948,VALID,150,VALID,0.542578,
2010-01-29, 03:33:04,VALID,917.646,VALID,0,VALID,91.8927,VALID,0,VALID,19.8363,VALID,150,VALID,0.607813,
2010-01-29, 03:34:04,VALID,917.655,VALID,0,VALID,91.9841,VALID,0,VALID,19.7958,VALID,150,VALID,0.727344,
2010-01-29, 03:35:04,VALID,917.659,VALID,0,VALID,92.1442,VALID,0,VALID,19.8168,VALID,150,VALID,0.785156,
2010-01-29, 03:36:04,VALID,917.652,VALID,0,VALID,92.2738,VALID,0,VALID,19.7568,VALID,150,VALID,0.678125,
2010-01-29, 03:37:04,VALID,917.617,VALID,0,VALID,92.3424,VALID,0,VALID,19.7178,VALID,150,VALID,1.05195,